Showing default

OPS 9332 (IDSCS 17), 2863

Orbit data source: Space-Track

OPS 9332 (IDSCS 17), 2863 is a payload satellite owned by SAMSO (US) in GEO that was launched on Sat, 01 Jul 1967 UTC via a TITAN IIIC launch vehicle from the Air Force Eastern Test Range (AFETR). Payload-class satellites include a variety of spacecraft equipped with specific instruments for various scientific and technological missions. These include communications satellites like Starlink; space stations such as the ISS; scientific satellites like the Hubble; Earth observation satellites from companies like Planet Labs, Umbra, and HawkEye 360; GPS; miniature CubeSats for education and research; and military/defense satellites.

Not visible in the next 10 days
Identifier
2863, 1967-066B
Orbit
GEO
Country
Flag of USUS
Related business
Manufacturer
Philco-Ford WDL
Mission
Non-operational spacecraft
Bus & Motor
IDCSP, Unknown motor
Mass
45 kg wet, 45 kg dry
Launch date (UTC)
1967-07-01 (59 years ago)
Launch vehicle
TITAN IIIC
Launch site
Air Force Eastern Test Range (AFETR)
Object type
Payload
Rocket body
Debris
Shape & HBR
Unknown
Radar Cross Section
Medium (>0.1 m² and <1 m²)

Expand to show TLE details & history
Last TLE update: 11 hours ago

TLE from 11 hours ago
0 OPS 9332 (IDSCS 17)
1  2863U 67066B   26112.02093376 -.00000112  00000-0  00000+0 0  9990
2  2863   2.7255  96.0510 0061940 241.8995 334.9094  1.09897653124109
Epoch: 2026-04-22T00:30Z
TLE epoch observation values (Epoch: 2026-04-22T00:30:08.676Z)
Latitude
-1.60784°
Longitude
94.90306°
Altitude
33,065.235 km
Speed
3.188 km/s
True Right ascension
20h 50m 06s
True Declination
-1° 36' 22"
Sunlit
Object was in daylight at epoch
Visualization orbit readout
Latitude
Unknown
Longitude
Unknown
Altitude
Unknown
Speed
Unknown
Apparent Right ascension
Unknown
Apparent Declination
Unknown
Sunlit
N/A
Visualization observer readout
Local Sidereal Time
18:24:33
Azimuth
Unknown
Elevation
Unknown
Doppler factor
Unknown
Orbital elements
Apogee altitude
33,533.879 km
Perigee altitude
33,042.493 km
Semi-major axis
39,666.323 km
Eccentricity
0.00619
Inclination
2.7255°
RAAN
96.051°
Arg. of periapsis
241.8995°
True anomaly
334.60629°
Mean anomaly
334.9094°
Eccentric anomaly
334.75806°
Mean motion
0.27473 °/min
Orbital period
1,310.36 mins
BSTAR
0
Loading maneuver chart data...
Computing Atmospheric mass density...
Loading historical data...
Loading historical data...
Loading historical data...
Loading historical data...
Loading historical data...
Loading historical data...
Loading historical data...

Documentation

Showing up to 5 results
|